When you browse on this site, cookies collect data to enhance your experience and personalize the content and advertising you see.
Visit our Privacy Policy to learn more. By continuing to use the site, you agree to this use of cookies and data.
  • în România
  • Lista ţărilor
  • Pe 7 zile
  • Temperatura apei
  • Meteo pe hartă
  • Widget-uri
  • user-avatar
    Intrare

    Meteo pe oră la Sydney

    Astăzi, 21 August, Miercuri

    Timp Temperatura Precipitaţii Vânt Presiune Umiditate
    00:00 +8°C° 0 mm 4 m/s 763 mmHg 59%
    01:00 +8°C° 0 mm 4 m/s 763 mmHg 61%
    02:00 +7°C° 0 mm 4 m/s 762 mmHg 62%
    03:00 +7°C° 0 mm 4 m/s 762 mmHg 63%
    04:00 +7°C° 0 mm 4 m/s 761 mmHg 64%
    05:00 +8°C° 0 mm 4 m/s 761 mmHg 65%
    06:00 +8°C° 0 mm 5 m/s 761 mmHg 66%
    07:00 +8°C° 0 mm 5 m/s 761 mmHg 67%
    08:00 +10°C° 0 mm 5 m/s 761 mmHg 58%
    09:00 +14°C° 0 mm 5 m/s 761 mmHg 50%
    10:00 +17°C° 0 mm 6 m/s 761 mmHg 41%
    11:00 +19°C° 0 mm 6 m/s 760 mmHg 39%
    12:00 +20°C° 0 mm 7 m/s 760 mmHg 36%
    13:00 +21°C° 0 mm 8 m/s 759 mmHg 33%
    14:00 +21°C° 0 mm 8 m/s 759 mmHg 34%
    15:00 +21°C° 0 mm 8 m/s 759 mmHg 35%
    16:00 +20°C° 0 mm 8 m/s 758 mmHg 36%
    17:00 +18°C° 0 mm 8 m/s 759 mmHg 41%
    18:00 +16°C° 0 mm 8 m/s 759 mmHg 46%
    19:00 +15°C° 0 mm 8 m/s 759 mmHg 51%
    20:00 +13°C° 0 mm 8 m/s 759 mmHg 54%
    21:00 +12°C° 0 mm 7 m/s 759 mmHg 57%
    22:00 +13°C° 0 mm 6 m/s 759 mmHg 59%
    23:00 +11°C° 0 mm 6 m/s 759 mmHg 61%

    Mâine, 22 August, Joi

    Timp Temperatura Precipitaţii Vânt Presiune Umiditate
    00:00 +10°C° 0 mm 6 m/s 759 mmHg 63%
    01:00 +10°C° 0 mm 6 m/s 759 mmHg 64%
    02:00 +10°C° 0 mm 6 m/s 758 mmHg 65%
    03:00 +9°C° 0 mm 6 m/s 758 mmHg 65%
    04:00 +9°C° 0 mm 6 m/s 758 mmHg 66%
    05:00 +9°C° 0 mm 6 m/s 758 mmHg 65%
    06:00 +9°C° 0 mm 7 m/s 758 mmHg 63%
    07:00 +10°C° 0 mm 7 m/s 758 mmHg 62%
    08:00 +12°C° 0 mm 8 m/s 758 mmHg 52%
    09:00 +15°C° 0 mm 8 m/s 759 mmHg 43%
    10:00 +17°C° 0 mm 9 m/s 759 mmHg 33%
    11:00 +18°C° 0 mm 10 m/s 759 mmHg 31%
    12:00 +18°C° 0 mm 10 m/s 760 mmHg 29%
    13:00 +18°C° 0 mm 11 m/s 760 mmHg 26%
    14:00 +17°C° 0 mm 11 m/s 760 mmHg 31%
    15:00 +14°C° 0 mm 11 m/s 761 mmHg 36%
    16:00 +13°C° 0 mm 11 m/s 762 mmHg 41%
    17:00 +12°C° 0 mm 11 m/s 763 mmHg 43%
    18:00 +12°C° 0 mm 10 m/s 764 mmHg 46%
    19:00 +11°C° 0 mm 9 m/s 765 mmHg 48%
    20:00 +10°C° 0 mm 9 m/s 766 mmHg 47%
    21:00 +9°C° 0 mm 8 m/s 766 mmHg 47%
    22:00 +8°C° 0 mm 7 m/s 767 mmHg 46%
    23:00 +8°C° 0 mm 7 m/s 767 mmHg 47%

    Poimâine, 23 August, Vineri

    Timp Temperatura Precipitaţii Vânt Presiune Umiditate
    00:00 +6°C° 0 mm 7 m/s 767 mmHg 48%
    01:00 +5°C° 0 mm 6 m/s 767 mmHg 49%
    02:00 +4°C° 0 mm 6 m/s 767 mmHg 51%
    03:00 +4°C° 0 mm 6 m/s 767 mmHg 54%
    04:00 +3°C° 0 mm 5 m/s 767 mmHg 57%
    05:00 +3°C° 0 mm 5 m/s 768 mmHg 57%
    06:00 +3°C° 0 mm 5 m/s 768 mmHg 58%
    07:00 +4°C° 0 mm 4 m/s 768 mmHg 58%
    08:00 +7°C° 0 mm 4 m/s 768 mmHg 52%
    09:00 +11°C° 0 mm 3 m/s 768 mmHg 47%
    10:00 +13°C° 0 mm 3 m/s 768 mmHg 41%
    11:00 +16°C° 0 mm 2 m/s 768 mmHg 37%
    12:00 +17°C° 0 mm 2 m/s 767 mmHg 34%
    13:00 +20°C° 0 mm 1 m/s 766 mmHg 31%
    14:00 +19°C° 0 mm 2 m/s 766 mmHg 31%
    15:00 +19°C° 0 mm 3 m/s 766 mmHg 30%
    16:00 +19°C° 0 mm 4 m/s 765 mmHg 30%
    17:00 +17°C° 0 mm 4 m/s 766 mmHg 43%
    18:00 +14°C° 0 mm 4 m/s 766 mmHg 56%
    19:00 +12°C° 0 mm 5 m/s 766 mmHg 69%
    20:00 +11°C° 0 mm 4 m/s 766 mmHg 69%
    21:00 +10°C° 0 mm 4 m/s 766 mmHg 68%
    22:00 +8°C° 0 mm 4 m/s 766 mmHg 67%
    23:00 +8°C° 0 mm 4 m/s 766 mmHg 66%

    24 August, Sâmbătă

    Timp Temperatura Precipitaţii Vânt Presiune Umiditate
    00:00 +7°C° 0 mm 4 m/s 765 mmHg 64%
    01:00 +7°C° 0 mm 3 m/s 765 mmHg 62%
    02:00 +7°C° 0 mm 3 m/s 764 mmHg 63%
    03:00 +7°C° 0 mm 3 m/s 764 mmHg 63%
    04:00 +5°C° 0 mm 3 m/s 764 mmHg 64%
    05:00 +5°C° 0 mm 3 m/s 764 mmHg 62%
    06:00 +5°C° 0 mm 3 m/s 764 mmHg 61%
    07:00 +6°C° 0 mm 4 m/s 764 mmHg 59%
    08:00 +10°C° 0 mm 4 m/s 764 mmHg 48%
    09:00 +13°C° 0 mm 4 m/s 764 mmHg 37%
    10:00 +18°C° 0 mm 4 m/s 763 mmHg 27%
    11:00 +20°C° 0 mm 3 m/s 763 mmHg 24%
    12:00 +22°C° 0 mm 3 m/s 762 mmHg 22%
    13:00 +25°C° 0 mm 2 m/s 761 mmHg 19%
    14:00 +25°C° 0 mm 3 m/s 761 mmHg 20%
    15:00 +25°C° 0 mm 3 m/s 761 mmHg 21%
    16:00 +25°C° 0 mm 4 m/s 760 mmHg 22%
    17:00 +21°C° 0 mm 3 m/s 761 mmHg 28%
    18:00 +19°C° 0 mm 3 m/s 762 mmHg 34%
    19:00 +16°C° 0 mm 3 m/s 762 mmHg 41%
    20:00 +14°C° 0 mm 3 m/s 762 mmHg 45%
    21:00 +13°C° 0 mm 3 m/s 763 mmHg 49%
    22:00 +12°C° 0 mm 3 m/s 763 mmHg 53%
    23:00 +11°C° 0 mm 3 m/s 763 mmHg 56%

    25 August, Duminică

    Timp Temperatura Precipitaţii Vânt Presiune Umiditate
    00:00 +10°C° 0 mm 3 m/s 763 mmHg 58%
    01:00 +10°C° 0 mm 3 m/s 763 mmHg 61%
    02:00 +9°C° 0 mm 3 m/s 763 mmHg 62%
    03:00 +9°C° 0 mm 3 m/s 762 mmHg 64%
    04:00 +8°C° 0 mm 3 m/s 762 mmHg 65%
    05:00 +8°C° 0 mm 3 m/s 763 mmHg 64%
    06:00 +8°C° 0 mm 3 m/s 763 mmHg 63%
    07:00 +9°C° 0 mm 3 m/s 764 mmHg 62%
    08:00 +13°C° 0 mm 2 m/s 764 mmHg 53%
    09:00 +16°C° 0 mm 2 m/s 764 mmHg 43%
    10:00 +20°C° 0 mm 1 m/s 764 mmHg 34%
    11:00 +20°C° 0 mm 2 m/s 763 mmHg 35%
    12:00 +20°C° 0 mm 3 m/s 763 mmHg 37%
    13:00 +21°C° 0 mm 4 m/s 762 mmHg 38%
    14:00 +19°C° 0.2 mm 5 m/s 762 mmHg 49%
    15:00 +17°C° 0.2 mm 5 m/s 762 mmHg 60%
    16:00 +16°C° 0.2 mm 6 m/s 762 mmHg 71%
    17:00 +15°C° 0.3 mm 5 m/s 763 mmHg 75%
    18:00 +14°C° 0.3 mm 5 m/s 764 mmHg 79%
    19:00 +13°C° 0.3 mm 5 m/s 765 mmHg 83%
    20:00 +13°C° 0.3 mm 4 m/s 765 mmHg 84%
    21:00 +13°C° 0.3 mm 4 m/s 765 mmHg 86%
    22:00 +12°C° 0.3 mm 3 m/s 765 mmHg 87%
    23:00 +12°C° 0 mm 4 m/s 766 mmHg 88%

    26 August, Luni

    Timp Temperatura Precipitaţii Vânt Presiune Umiditate
    00:00 +11°C° 0 mm 4 m/s 766 mmHg 88%
    01:00 +10°C° 0 mm 5 m/s 766 mmHg 89%
    02:00 +10°C° 0 mm 5 m/s 766 mmHg 89%
    03:00 +9°C° 0 mm 5 m/s 765 mmHg 89%
    04:00 +9°C° 0 mm 5 m/s 765 mmHg 89%
    05:00 +9°C° 0 mm 5 m/s 766 mmHg 90%
    06:00 +9°C° 0 mm 5 m/s 766 mmHg 90%
    07:00 +9°C° 0 mm 5 m/s 767 mmHg 90%
    08:00 +12°C° 0.1 mm 5 m/s 767 mmHg 82%
    09:00 +14°C° 0.1 mm 4 m/s 767 mmHg 73%
    10:00 +17°C° 0.1 mm 4 m/s 767 mmHg 64%
    11:00 +18°C° 0.1 mm 4 m/s 766 mmHg 60%
    12:00 +18°C° 0.1 mm 4 m/s 766 mmHg 56%
    13:00 +19°C° 0.1 mm 4 m/s 766 mmHg 52%
    14:00 +19°C° 0.2 mm 4 m/s 765 mmHg 57%
    15:00 +18°C° 0.2 mm 4 m/s 765 mmHg 62%
    16:00 +17°C° 0.2 mm 4 m/s 765 mmHg 68%
    17:00 +15°C° 0.2 mm 4 m/s 766 mmHg 72%
    18:00 +14°C° 0.2 mm 4 m/s 766 mmHg 76%
    19:00 +14°C° 0.2 mm 4 m/s 767 mmHg 81%
    20:00 +14°C° 0.2 mm 4 m/s 767 mmHg 82%
    21:00 +14°C° 0.2 mm 4 m/s 768 mmHg 82%
    22:00 +14°C° 0.2 mm 4 m/s 768 mmHg 83%
    23:00 +13°C° 0.5 mm 4 m/s 768 mmHg 84%
    Arată mai mult